RH
70 68 83 70 81 94 94 87 82 68 56 43 36 36 34 33 33 62 78 86 89 87 84 84 84 84 86 87 88 89 89 87 84 78 75 76 71 74 78 80 80 72 74 71 70 66 67 70 74
59 60 68 83 89 88 63 84 72 67 50 38 33 32 39 51 84 82 89 82 84 86 85 83 86 84 83 84 87 90 88 86 84 82 80 79 74 77 79 79 77 74 72 68 67 71 74 78 73
58 57 72 90 95 89 68 67 64 46 42 38 34 33 46 68 79 84 80 87 82 89 86 86 88 86 84 82 85 88 89 87 86 84 83 82 78 77 79 77 78 75 77 68 71 75 79 77 67
61 68 75 92 95 83 74 64 58 53 42 34 30 32 34 66 80 78 91 86 93 94 93 91 89 87 86 86 84 86 87 86 87 85 84 84 81 78 79 82 82 81 81 76 75 78 76 69 72
70 77 88 96 92 85 76 57 50 52 46 38 32 32 31 51 78 84 92 90 94 96 96 92 89 88 89 90 87 84 87 87 86 85 82 81 80 80 82 84 84 83 79 74 74 71 67 69 72
83 81 89 86 84 74 67 54 47 45 40 31 30 30 29 58 77 93 92 96 94 96 95 90 90 89 91 89 91 87 88 89 87 86 85 83 82 83 85 84 85 81 76 71 70 67 67 71 71
84 87 86 88 83 72 60 48 45 42 44 36 29 32 28 38 84 98 98 97 96 97 96 97 95 92 93 92 93 91 88 90 88 87 87 85 86 86 85 85 84 79 75 72 72 70 70 71 71
79 80 91 86 77 65 51 40 38 39 39 28 29 36 38 38 86 92 92 98 97 98 98 98 97 96 98 97 94 94 93 92 91 89 91 92 91 89 88 90 86 83 80 81 80 74 74 75 75
61 81 91 80 77 66 48 49 40 37 38 38 30 32 44 40 70 87 93 91 98 98 96 97 96 93 90 92 89 96 95 94 93 95 93 96 89 89 90 91 90 87 86 86 82 79 81 85 82
70 87 71 64 60 61 53 56 50 45 43 44 34 30 32 38 47 81 91 95 91 97 97 97 94 91 87 78 83 86 95 98 98 96 96 94 88 82 77 90 92 92 91 90 86 86 89 88 93
77 82 67 57 54 55 58 53 50 47 47 42 37 37 36 40 49 64 78 92 93 92 96 96 96 91 88 89 93 93 90 98 99 97 96 92 74 73 72 86 82 88 94 98 95 95 97 92 88
76 62 62 62 54 58 58 50 54 47 42 36 34 34 38 42 42 55 65 72 93 97 95 96 98 96 92 95 92 87 90 89 96 96 96 93 81 68 72 80 79 82 92 96 98 98 95 91 85
81 71 64 64 67 67 61 65 62 58 47 40 37 37 45 50 48 56 56 67 92 98 96 97 97 98 98 97 97 80 89 91 89 94 91 90 77 76 72 85 82 85 92 93 97 98 97 94 84
79 76 73 69 69 66 68 63 65 55 51 46 42 42 45 47 46 52 54 66 88 93 95 96 96 96 96 97 96 88 78 86 94 94 90 84 75 77 76 81 88 86 90 97 93 98 97 94 85
76 85 79 74 73 78 70 80 74 52 49 51 47 42 41 51 48 51 59 62 72 92 92 96 94 95 96 95 96 97 76 81 97 95 89 83 81 78 74 79 82 83 90 93 94 97 95 93 82
89 86 96 63 74 69 66 80 56 52 56 55 50 46 44 45 49 51 57 62 68 86 95 92 87 94 94 95 96 96 93 75 92 97 93 92 93 86 84 78 79 87 92 97 94 97 95 88 84
88 95 93 83 67 67 73 81 63 55 54 55 51 50 48 48 51 53 54 58 61 88 94 96 95 95 93 95 96 96 93 92 81 96 94 91 94 93 87 90 82 86 90 95 93 94 88 87 84
87 92 87 91 68 70 74 75 62 56 63 62 59 58 54 55 53 53 59 63 70 87 96 96 96 95 97 95 94 96 95 95 92 92 96 89 94 96 98 93 82 82 84 87 90 86 85 82 79
86 91 84 79 68 73 81 80 71 62 73 82 82 80 66 62 59 65 59 69 80 89 98 98 98 96 96 97 94 93 97 96 96 94 89 89 90 95 98 93 90 83 80 80 78 80 80 83 81
78 85 76 73 69 76 79 85 71 65 72 75 77 77 77 74 73 66 72 80 89 90 95 97 96 95 92 95 97 96 97 95 94 94 93 91 91 90 88 89 81 78 79 79 79 81 88 85 89
79 85 71 76 75 72 85 92 88 76 80 77 73 73 75 79 79 73 68 81 89 94 97 96 94 96 95 96 97 99 98 98 98 98 94 92 87 92 89 91 88 85 83 86 89 88 88 92 93
88 63 64 67 93 92 79 94 82 93 86 83 85 87 84 79 76 78 79 90 96 95 94 94 96 96 95 96 98 96 96 96 96 96 94 92 88 91 90 90 88 89 91 95 92 93 92 92 93
84 78 89 92 97 99 82 97 86 93 90 89 88 85 87 82 80 81 89 94 95 96 97 95 95 96 95 96 94 96 97 96 98 99 98 97 98 96 90 89 88 91 93 95 96 98 97 96 96
79 89 89 94 96 98 93 98 94 96 96 91 87 84 85 82 89 89 94 97 94 96 99 98 97 98 95 95 96 96 94 96 97 99 99 99 99 99 99 99 98 98 98 98 99 99 99 98 97
88 96 97 93 100 94 99 99 97 96 89 90 91 84 99 96 96 93 94 96 91 95 98 98 98 99 98 98 98 98 92 94 98 98 99 99 99 98 99 98 99 99 99 99 99 99 99 98 98
88 90 99 97 100 96 96 98 99 94 88 93 93 94 94 98 96 97 96 97 98 98 97 98 96 98 98 99 99 99 98 98 99 99 99 99 98 98 98 99 99 99 98 98 98 99 99 99 99
88 99 95 100 99 98 98 99 97 90 89 92 95 95 97 97 97 97 97 98 97 97 98 98 97 97 95 98 99 99 99 99 99 100 99 99 98 98 98 98 98 98 98 98 98 99 99 99 99
90 91 99 100 97 96 97 98 98 99 98 92 96 97 96 94 93 94 94 94 93 94 94 92 92 93 90 90 93 95 97 98 99 99 99 99 98 99 99 99 99 99 98 98 98 98 98 99 98
97 99 98 97 93 96 95 99 100 100 98 96 95 95 92 89 88 88 87 83 82 85 83 80 75 78 80 79 80 80 81 86 91 95 97 97 98 99 99 98 98 98 97 97 98 98 97 98 98
76 86 76 98 90 90 98 99 95 95 94 84 84 82 68 66 67 67 65 64 65 67 66 66 66 71 77 75 73 76 74 74 75 78 83 86 95 95 96 96 96 98 99 99 99 99 99 98 98
Wind_Speed
4 4 2 5 5 5 3 6 3 3 2 3 4 1 6 4 5 6 4 7 9 14 12 13 16 15 13 13 13 13 13 13 14 14 15 16 17 17 16 14 15 17 16 15 16 17 16 15 14
4 2 5 3 5 3 6 4 6 7 4 9 6 5 3 5 3 4 3 6 11 13 12 13 17 15 14 13 13 13 14 13 14 14 14 16 17 17 15 16 19 16 15 14 15 15 15 13 11
1 4 5 5 4 6 5 6 6 6 7 5 5 2 4 4 5 4 4 9 11 9 10 11 17 16 15 14 13 13 13 12 12 13 14 16 17 16 17 17 16 15 14 15 14 14 13 12 10
3 5 5 5 8 8 6 4 3 4 5 6 5 7 6 2 2 2 6 14 10 7 6 13 18 18 15 13 12 13 14 14 13 13 13 15 17 16 17 16 17 15 13 13 13 12 11 11 10
4 3 3 2 5 5 3 6 3 3 3 3 5 5 6 9 8 4 3 2 12 11 9 11 15 16 16 15 13 12 12 15 14 14 14 15 15 16 18 17 17 16 15 14 13 11 10 10 11
4 3 3 4 5 4 4 5 2 2 1 6 3 5 6 5 13 10 7 5 5 6 7 10 14 15 14 13 13 12 12 13 14 14 15 15 14 17 19 18 17 17 16 14 13 12 11 9 10
6 4 4 3 3 3 4 3 3 1 1 3 5 4 6 12 14 10 4 5 4 4 5 2 5 8 11 10 8 10 11 13 13 14 13 14 13 17 20 18 17 17 16 14 13 12 11 9 9
5 4 2 4 3 6 2 4 4 1 3 7 3 2 4 7 9 8 8 5 4 4 4 6 5 5 5 5 5 5 9 9 11 13 11 10 11 15 18 16 15 15 14 13 11 11 10 8 6
3 3 3 4 6 4 4 7 6 4 3 2 4 2 2 9 8 5 4 4 2 3 2 4 7 5 7 6 7 8 4 6 9 9 11 9 6 10 13 12 13 14 13 13 12 11 9 7 5
4 3 6 4 1 2 5 2 5 5 5 3 4 4 9 11 9 8 5 2 6 3 4 2 6 6 7 5 6 6 6 4 1 5 6 6 7 8 10 11 14 14 12 11 11 10 7 5 2
2 4 3 3 3 3 5 8 4 3 10 7 6 4 5 7 10 10 5 3 4 3 1 4 3 6 8 5 4 3 3 4 2 1 5 6 6 7 6 6 7 7 10 4 5 5 3 4 3
1 4 3 4 4 5 7 4 9 9 12 11 14 13 6 8 9 9 9 6 5 6 5 5 4 4 2 3 3 4 4 3 5 3 4 4 4 8 7 5 6 7 5 6 4 3 3 4 4
2 3 6 6 8 6 8 10 12 13 13 17 18 12 9 8 9 10 9 8 5 7 9 8 5 5 3 3 2 1 3 4 4 8 6 4 7 7 8 6 6 6 6 6 5 4 4 4 4
3 5 9 8 10 8 11 12 3 11 6 10 11 14 9 11 10 8 9 9 6 6 9 9 10 8 5 4 4 3 3 3 3 5 11 9 9 9 9 8 6 6 7 4 5 4 4 4 4
4 7 7 7 3 5 3 5 11 18 9 17 17 18 16 11 11 11 10 9 7 7 6 10 12 9 7 7 5 4 4 4 4 6 10 15 9 10 11 8 8 6 6 8 4 3 3 3 3
4 3 5 3 3 6 6 8 12 10 8 13 16 16 15 10 12 11 10 9 8 7 9 9 8 9 9 8 5 4 4 5 5 6 6 11 12 12 9 8 7 5 5 4 4 3 4 4 4
2 2 3 8 2 3 6 10 6 8 8 12 14 14 13 12 9 9 10 10 11 8 9 9 9 11 11 8 5 6 7 6 7 6 7 9 10 9 9 6 5 6 5 4 4 3 3 3 4
0 3 5 7 5 1 12 23 24 19 13 16 15 13 12 11 13 9 10 11 10 8 8 8 8 9 8 6 7 7 7 7 7 8 6 10 5 6 3 2 5 5 4 3 3 4 4 4 4
1 5 14 14 13 11 15 18 22 21 9 12 13 10 11 12 11 8 11 8 9 8 9 11 10 10 7 6 9 8 8 8 6 8 13 11 11 12 3 3 5 6 8 8 7 4 6 5 3
8 11 15 14 8 5 13 19 21 18 11 10 11 9 10 7 8 10 9 8 10 12 13 10 12 12 10 6 4 2 3 4 5 3 7 11 13 13 11 9 8 9 6 6 8 7 3 4 4
10 9 13 13 13 13 11 12 5 5 3 3 4 6 6 9 9 8 9 9 12 12 12 11 12 11 10 8 3 2 2 2 2 3 5 7 11 13 16 17 12 10 8 8 7 6 6 4 3
10 7 11 11 8 5 6 11 4 5 8 6 8 7 8 8 8 7 8 7 12 14 10 10 11 12 10 8 4 4 3 2 3 3 4 6 11 12 15 15 11 9 7 5 6 5 5 4 4
8 3 7 9 11 9 8 7 6 6 8 11 14 9 8 8 7 9 8 9 8 9 12 11 10 9 7 9 8 5 3 2 3 2 4 4 5 5 9 9 11 9 7 6 7 5 5 3 3
7 9 13 10 5 5 1 6 5 5 12 13 10 9 10 8 7 7 4 5 2 5 7 10 11 6 8 8 7 9 11 7 6 5 4 3 3 3 3 2 3 3 6 7 6 6 6 6 4
4 6 5 5 1 4 2 4 4 16 22 9 9 8 8 6 4 2 3 1 3 6 8 7 8 5 7 5 5 4 14 12 6 6 4 4 2 2 3 5 5 1 2 3 4 5 5 5 6
3 2 3 4 3 4 2 5 4 16 9 10 11 8 9 5 8 5 12 9 8 9 8 7 9 7 5 6 7 6 9 6 5 4 3 3 2 2 3 3 4 2 2 3 3 3 4 4 5
1 4 2 4 4 3 3 1 1 19 15 13 14 12 9 13 13 12 13 7 12 12 12 13 11 8 10 6 8 6 8 5 5 4 3 3 2 2 3 4 4 4 3 4 3 4 6 4 4
6 4 2 2 4 2 3 3 5 14 13 13 12 12 12 14 15 17 15 16 13 14 13 13 9 12 11 11 10 8 7 6 5 4 4 3 4 4 5 5 5 4 5 6 5 6 6 7 6
2 3 3 3 2 2 4 3 6 8 10 12 13 12 12 12 11 11 10 11 13 15 13 12 13 14 13 12 8 9 7 8 7 7 6 5 5 2 3 4 5 6 7 8 9 10 10 10 10
4 4 3 2 2 2 2 4 4 5 9 8 9 6 7 9 9 9 10 11 13 12 12 12 12 13 9 7 8 8 9 9 10 9 7 7 6 5 5 4 4 4 4 3 4 5 5 7 9
Wind_Direction
350 325 63 43 71 64 254 253 295 282 203 353 304 197 231 234 201 228 327 183 135 152 156 153 160 158 159 155 154 151 151 153 150 154 152 146 146 146 147 148 152 135 120 119 119 120 121 115 109
329 64 47 84 91 109 262 238 212 241 335 315 315 346 326 268 212 264 131 182 155 157 156 157 160 156 157 158 155 161 161 166 159 159 161 154 151 151 150 137 139 132 126 127 125 129 120 114 108
25 31 90 117 135 199 212 213 220 331 327 318 341 299 302 277 296 235 210 143 151 161 159 158 155 156 158 160 164 163 167 170 165 167 166 163 159 155 149 140 132 127 127 137 124 131 127 123 114
36 15 30 117 200 257 202 202 94 337 342 17 357 300 310 192 260 313 158 140 137 145 153 161 158 158 158 158 163 172 177 174 171 173 170 166 165 159 152 135 123 128 129 137 139 138 135 127 115
37 58 86 167 232 251 206 288 357 320 295 308 316 303 290 334 316 78 126 177 154 148 151 159 162 158 157 161 169 175 181 181 178 176 173 174 174 160 148 136 134 138 143 147 147 145 141 133 118
51 92 107 227 242 273 252 226 145 287 49 314 12 344 270 350 3 326 127 129 174 143 151 160 163 162 160 163 169 175 183 185 180 181 178 179 175 162 148 142 145 147 147 151 150 148 146 139 121
113 100 206 200 244 276 251 213 185 172 311 296 289 323 290 357 344 345 333 102 133 129 116 113 159 162 153 153 159 171 182 178 179 184 184 179 167 160 151 150 151 151 151 152 152 151 149 144 129
105 97 174 228 186 265 326 332 344 56 286 323 344 276 331 315 339 359 356 53 93 104 140 139 104 99 98 104 114 186 177 182 182 185 177 177 155 162 154 150 155 154 154 151 155 155 153 150 145
107 77 238 231 164 243 22 18 326 312 258 359 278 282 297 307 320 354 12 343 28 102 99 128 138 132 116 104 89 79 81 189 190 179 175 170 163 157 152 152 154 156 159 157 161 164 161 162 166
97 140 213 237 239 314 318 321 333 318 316 283 288 280 343 342 345 357 339 285 263 228 162 197 147 152 129 133 113 92 99 86 283 173 166 162 173 164 161 159 158 158 161 165 168 171 166 162 164
115 198 226 268 260 283 301 310 228 295 281 208 232 258 301 323 327 321 326 248 204 245 233 285 259 162 152 151 129 117 109 120 98 277 172 172 175 159 166 157 164 159 148 159 162 168 161 180 187
309 249 251 282 326 315 293 313 293 248 263 275 268 264 216 226 266 279 296 292 224 186 211 245 261 286 200 164 160 148 139 159 152 156 234 183 166 172 168 172 161 158 153 162 164 172 185 212 224
198 284 287 296 301 271 269 262 257 272 282 266 276 262 242 231 236 266 269 278 233 215 195 207 231 243 282 288 327 170 155 185 177 165 173 212 183 181 171 166 171 169 162 167 174 178 195 225 240
323 292 287 279 268 270 269 269 241 255 279 269 272 274 234 220 219 238 262 267 244 218 213 198 207 217 218 248 236 235 193 207 199 194 171 200 194 185 182 172 173 169 171 162 177 175 193 216 224
294 312 312 266 271 253 213 273 233 255 251 260 264 265 267 214 225 220 231 243 229 234 210 202 202 202 211 222 221 229 251 199 195 216 194 166 202 195 186 180 175 175 174 157 162 189 194 226 225
354 5 341 283 154 262 134 263 253 261 245 248 257 259 263 241 214 227 233 236 236 223 206 208 203 193 208 217 211 215 226 235 208 200 207 185 177 196 196 195 179 161 154 159 158 182 220 223 214
359 279 255 303 242 264 188 281 259 286 238 256 256 256 255 258 214 228 241 239 246 212 214 203 198 201 202 210 215 212 225 220 228 195 200 192 151 213 188 181 176 152 167 182 173 188 199 222 230
357 317 288 266 300 288 288 279 280 279 236 246 252 243 249 246 249 214 232 242 239 218 202 197 201 207 203 206 218 227 218 227 223 197 187 192 175 145 214 158 179 169 188 167 178 187 195 214 207
275 267 282 279 273 280 263 267 274 273 239 232 243 237 240 241 246 243 244 228 227 230 196 192 188 203 190 200 216 219 220 212 210 199 193 190 192 153 200 189 202 191 206 193 203 190 194 228 191
266 281 291 289 278 253 280 275 274 282 263 226 233 238 238 255 258 250 244 231 213 216 206 186 190 192 195 200 209 206 158 193 187 172 203 186 190 158 182 217 222 192 196 180 196 188 164 209 182
253 252 279 276 292 262 281 278 254 256 305 286 228 245 238 240 258 252 243 235 219 209 193 187 192 192 194 187 176 108 83 135 131 173 185 195 188 174 191 199 218 187 187 197 187 190 178 194 204
272 240 267 289 295 292 55 295 246 330 316 349 320 301 277 266 272 253 253 248 206 206 191 181 183 186 190 167 177 175 203 159 159 174 181 185 186 181 196 199 196 187 185 188 191 172 185 158 183
242 325 273 270 262 294 248 257 274 2 333 329 308 296 286 261 251 260 251 262 209 181 179 184 187 174 168 179 184 192 185 204 140 158 164 160 142 168 203 197 181 187 186 192 170 157 164 169 153
285 295 275 256 243 245 239 212 299 349 307 300 294 297 299 271 242 243 279 284 252 197 164 165 170 158 165 195 186 200 202 188 174 161 144 148 142 112 120 93 37 190 164 181 193 194 202 201 190
199 285 316 352 250 244 318 249 298 323 315 281 274 318 21 5 300 275 264 198 10 168 172 132 121 124 110 173 161 197 200 179 158 152 138 138 118 127 105 81 89 264 245 193 200 197 196 203 207
299 261 267 288 286 291 290 332 337 329 351 49 48 74 38 24 21 44 45 22 70 68 96 115 127 106 110 121 95 70 101 97 102 111 136 130 119 103 107 143 154 194 217 230 222 232 234 202 232
65 222 202 275 234 263 295 313 291 343 3 49 37 56 45 38 9 50 44 29 63 72 74 78 94 120 80 70 74 80 82 78 93 108 113 119 136 176 207 217 195 210 251 259 233 225 236 231 245
230 353 264 233 316 317 335 71 341 340 345 34 45 35 43 38 15 21 23 31 43 59 61 69 69 76 71 64 57 57 60 69 86 121 136 153 204 209 208 210 203 208 217 229 231 241 218 217 229
257 259 241 284 173 333 350 33 356 359 0 43 42 34 44 40 33 32 33 33 39 46 43 45 49 62 58 52 54 50 49 58 61 64 54 56 62 12 241 222 211 213 219 220 235 236 238 231 236
170 247 230 152 303 50 93 35 12 15 35 48 58 58 39 45 51 49 45 49 51 53 51 52 52 56 54 56 65 56 48 45 47 43 34 30 35 39 34 12 359 343 326 317 283 275 265 249 245